Wind_Speed
28 27 24 25 22 20 18 15 14 11 8 6 4 2 2 3 4 4 4 4 3 3 4 4 4 5 5 6 6 6 6 6 7 8 7 10 11 11 10 12 12 14 13
30 28 27 26 25 21 17 16 13 10 9 6 5 3 3 4 6 5 4 3 3 4 4 5 5 5 6 6 6 7 7 7 7 7 7 4 6 10 9 13 12 16 17
33 32 29 26 24 20 18 17 14 11 10 6 4 3 5 4 4 3 3 4 5 5 6 6 7 7 7 7 8 8 8 8 9 7 5 3 3 9 9 11 15 14 16
29 30 29 26 24 21 18 16 15 12 10 6 5 4 5 5 4 5 5 5 6 6 7 7 8 9 9 9 10 9 10 10 10 10 8 8 12 7 8 9 14 18 19
32 30 30 26 23 21 19 17 15 14 11 8 5 5 6 5 5 5 5 7 8 7 8 8 9 10 10 11 11 11 11 12 12 12 12 13 13 14 14 21 17 12 16
29 26 25 24 23 21 20 18 17 16 13 10 8 7 7 7 6 6 7 8 9 9 9 9 10 11 12 13 13 13 13 13 14 15 15 16 16 17 15 19 26 26 26
29 27 26 26 23 23 21 20 19 17 14 12 10 9 8 7 7 8 8 8 8 10 12 12 11 11 12 13 14 14 15 16 17 17 19 19 20 21 22 25 29 30 32
29 29 26 26 25 23 21 20 19 17 15 13 12 10 9 9 8 8 8 8 8 9 10 11 11 11 12 13 14 15 16 18 19 20 21 22 22 24 25 27 28 33 34
30 29 27 24 24 22 20 19 18 16 14 13 11 11 9 8 7 7 6 7 8 9 9 10 11 12 13 13 15 17 17 19 21 22 23 24 24 25 26 27 28 29 34
26 24 23 21 20 19 17 17 15 15 14 12 12 10 8 7 7 7 7 8 8 9 10 11 11 12 12 13 15 16 17 19 20 22 24 25 25 26 27 28 30 31 35
25 24 22 20 18 17 16 15 14 14 13 11 10 9 8 7 7 7 7 7 7 8 8 8 9 10 11 13 15 17 19 21 23 24 25 26 26 28 28 29 30 33 35
24 24 22 20 18 17 16 15 14 12 9 7 7 6 5 5 5 6 6 6 5 4 6 8 10 11 13 15 16 18 19 21 23 25 26 29 29 30 31 32 33 34 35
24 22 21 21 19 18 16 14 12 9 7 6 6 6 6 6 6 5 4 2 3 5 7 10 12 14 15 17 18 19 20 22 24 26 28 29 30 31 32 33 35 36 37
23 23 22 21 19 17 15 12 9 7 6 7 8 7 6 5 4 4 2 3 5 7 9 11 14 17 19 20 22 22 24 26 28 28 29 30 30 31 31 31 32 34 37
23 24 23 21 19 17 14 10 7 7 7 7 8 6 6 6 4 2 1 4 6 9 13 16 18 19 21 22 24 25 27 29 30 30 30 30 29 29 29 31 34 34 35
23 24 22 19 18 15 11 9 8 7 7 8 7 8 7 5 3 1 3 7 10 14 17 19 21 22 24 25 25 26 28 29 30 31 30 29 28 28 28 28 30 31 32
25 24 22 19 16 13 11 10 8 8 8 8 9 8 6 4 2 4 8 11 15 18 20 22 24 26 27 27 27 27 28 30 31 31 30 30 28 27 27 28 29 30 29
24 24 22 18 15 14 11 8 8 9 10 10 9 6 5 4 5 8 12 15 19 22 24 26 27 28 28 27 27 27 29 31 31 31 30 31 31 29 30 31 32 33 34
22 23 20 19 17 12 10 9 10 11 11 9 7 6 5 6 9 12 16 20 23 25 27 28 29 29 28 27 27 28 31 33 34 33 32 32 33 32 29 27 32 36 36
21 22 21 19 14 12 10 10 11 11 10 8 6 5 6 9 13 17 20 23 25 27 28 29 29 29 30 29 30 30 32 36 38 38 36 34 34 34 31 28 31 35 38
23 23 18 15 13 11 11 10 11 10 7 5 5 6 9 13 17 20 23 25 27 28 29 30 30 30 30 32 32 33 35 38 41 41 42 40 38 35 31 30 33 35 34
20 18 18 15 11 11 11 11 9 7 5 4 6 9 13 17 20 23 24 25 27 28 29 31 33 33 34 35 36 35 34 35 35 39 41 42 42 36 35 34 32 32 30
18 17 14 13 12 12 10 9 7 4 3 6 9 13 16 19 21 23 24 25 26 28 31 33 36 38 37 37 37 35 34 31 31 35 40 41 39 35 36 36 33 31 29
16 14 12 12 12 11 9 5 3 3 6 9 12 16 18 20 21 22 23 25 27 29 32 34 37 40 41 41 40 37 35 34 35 39 42 43 42 40 36 35 33 30 33
14 12 12 12 11 9 6 3 3 6 9 13 15 17 18 19 21 22 24 27 28 29 32 35 37 40 44 41 33 33 34 34 35 35 37 38 38 39 40 36 33 32 34
14 13 12 10 8 6 3 3 6 10 13 15 16 16 18 20 22 25 28 26 28 31 33 35 37 40 38 40 35 33 33 34 34 35 36 38 37 36 35 36 39 36 33
Wind_Direction
172 170 176 178 177 184 184 183 188 191 197 198 218 236 281 324 322 325 325 330 336 333 330 330 334 335 335 335 334 327 321 319 321 320 337 316 318 316 317 298 289 297 300
169 170 182 184 185 187 186 188 191 194 199 194 210 244 257 290 307 317 315 325 327 326 327 326 323 322 322 322 327 326 324 319 327 324 319 335 297 285 310 319 314 308 307
171 176 186 188 186 189 191 194 196 197 201 201 210 226 239 271 279 292 311 321 321 316 316 310 309 309 312 318 319 320 321 317 319 325 312 313 276 299 298 306 304 309 310
178 183 188 189 190 192 194 197 202 204 204 206 221 235 247 268 291 306 318 326 316 312 305 301 301 302 309 313 314 317 316 313 313 315 307 293 283 295 289 284 289 302 303
183 189 189 193 192 198 199 202 206 209 211 215 236 251 252 259 269 285 305 314 314 310 302 299 299 303 308 308 308 308 308 309 309 306 304 301 295 288 280 290 295 282 286
181 189 192 193 197 202 203 207 211 215 217 223 243 255 258 265 272 289 302 311 312 316 314 308 306 306 307 306 305 304 306 305 304 301 297 295 291 289 281 279 291 291 295
174 182 189 190 198 205 206 209 215 219 223 231 241 252 256 261 277 290 299 305 310 313 319 321 320 312 304 300 300 303 303 301 299 297 296 294 293 291 287 283 286 287 293
179 182 191 192 200 207 208 211 217 222 227 232 241 253 257 261 275 286 299 306 313 311 307 309 313 315 309 306 304 303 303 303 301 300 298 296 295 292 291 288 290 290 290
176 183 189 196 202 208 210 213 215 221 226 231 241 249 252 263 273 288 299 305 306 302 300 304 310 314 315 313 310 310 309 304 303 301 299 296 296 294 293 290 288 285 283
166 178 184 189 195 201 202 204 209 213 220 226 236 247 258 270 282 286 291 296 298 304 309 313 315 317 317 314 311 310 310 306 306 304 303 302 302 298 295 292 290 286 282
166 170 171 172 174 177 180 184 189 198 207 220 234 242 247 264 264 266 276 285 293 294 306 317 322 322 319 317 314 315 315 313 312 310 308 307 306 303 300 297 293 289 286
162 168 167 164 162 165 166 173 183 193 198 203 216 230 238 236 237 250 270 282 288 311 324 325 326 326 325 322 319 314 309 306 305 305 301 302 303 300 301 300 296 293 292
158 161 157 155 158 162 164 171 176 179 190 204 215 215 215 223 236 251 249 245 309 327 334 338 337 332 326 320 317 311 307 304 303 303 302 301 300 297 297 295 294 293 292
158 155 153 159 163 166 169 172 178 190 204 209 212 214 215 217 209 193 237 311 337 344 343 335 329 325 323 322 320 316 311 308 306 305 303 302 300 299 298 295 291 290 287
160 160 158 165 169 171 171 177 186 199 205 204 206 203 192 179 193 219 306 337 340 333 329 329 327 326 324 322 319 315 312 310 308 307 306 304 303 300 298 295 295 295 292
167 164 168 175 176 175 175 185 194 196 199 197 189 177 180 196 201 259 318 323 326 328 327 326 324 323 322 322 319 314 310 310 310 310 310 308 307 306 305 302 299 296 295
172 170 174 180 178 177 185 192 196 191 189 184 177 187 197 206 241 300 318 321 323 325 324 324 323 322 322 321 319 316 312 310 311 311 312 311 309 308 306 303 298 295 292
177 177 182 182 182 185 189 195 188 184 182 183 191 197 210 245 293 310 316 319 321 322 323 322 321 320 320 320 318 317 311 308 309 310 309 308 307 308 308 303 298 297 297
185 186 187 185 189 187 189 189 184 184 186 193 202 212 243 283 304 311 316 321 321 319 319 321 320 319 319 321 320 320 317 313 312 312 311 308 304 304 303 299 296 296 296
182 182 185 187 186 183 187 184 181 184 194 203 216 248 282 300 311 318 321 320 319 320 320 319 321 323 322 323 323 321 318 317 316 314 311 309 307 307 300 295 294 294 296
170 179 181 179 180 177 180 176 181 193 200 214 248 282 303 314 319 320 320 322 321 320 323 322 322 321 322 322 320 320 317 315 313 311 311 309 309 307 301 297 296 295 300
167 172 169 174 169 167 172 176 184 191 211 248 289 308 315 319 319 320 322 323 325 324 322 321 321 322 323 322 320 317 310 307 300 300 304 304 306 303 300 300 299 297 297
155 164 170 165 158 160 169 184 184 200 261 297 310 314 317 321 322 324 326 326 326 325 325 325 323 322 321 319 318 314 310 304 299 296 297 299 299 299 300 300 301 301 298
157 162 161 156 155 162 175 181 190 260 296 303 311 318 319 321 327 328 328 327 329 328 326 323 321 320 319 320 321 319 317 312 308 307 305 304 301 299 298 300 301 300 303
156 156 156 154 154 160 171 192 262 291 308 315 316 319 324 326 326 329 331 330 331 330 326 323 320 319 318 317 312 309 310 311 310 309 307 308 307 306 307 303 303 304 309
153 153 155 149 149 163 201 265 303 307 308 314 320 321 323 326 328 328 326 328 328 329 328 325 324 321 312 311 310 311 313 313 312 310 307 307 309 306 306 308 310 311 313
Height
1495 1498 1503 1506 1510 1512 1515 1519 1522 1525 1527 1527 1530 1530 1531 1532 1533 1533 1532 1532 1532 1532 1532 1532 1532 1532 1532 1531 1531 1531 1531 1530 1529 1528 1527 1526 1527 1526 1526 1526 1525 1524 1523
1491 1496 1500 1503 1507 1510 1514 1517 1520 1523 1525 1525 1528 1529 1531 1531 1531 1531 1531 1531 1531 1531 1531 1531 1531 1531 1530 1530 1530 1530 1530 1529 1529 1528 1527 1526 1526 1525 1524 1523 1523 1522 1521
1486 1491 1496 1501 1504 1508 1511 1515 1518 1521 1523 1524 1527 1528 1530 1530 1530 1530 1530 1530 1530 1530 1530 1530 1530 1530 1529 1529 1529 1529 1529 1529 1528 1527 1528 1526 1525 1523 1521 1521 1520 1519 1518
1486 1490 1493 1497 1501 1506 1510 1513 1516 1519 1521 1523 1525 1526 1528 1528 1529 1528 1528 1529 1529 1528 1528 1529 1529 1529 1528 1528 1528 1528 1528 1527 1526 1526 1525 1525 1524 1522 1520 1518 1517 1515 1514
1481 1485 1489 1495 1500 1503 1507 1511 1514 1517 1519 1521 1523 1524 1526 1527 1527 1527 1527 1527 1527 1527 1527 1527 1527 1527 1527 1527 1527 1526 1526 1526 1525 1524 1522 1522 1521 1520 1519 1514 1513 1513 1511
1479 1484 1488 1493 1497 1501 1505 1509 1512 1515 1517 1519 1521 1522 1524 1524 1525 1525 1525 1525 1525 1525 1525 1525 1525 1525 1524 1524 1524 1524 1524 1523 1522 1521 1520 1519 1518 1517 1516 1513 1509 1508 1507
1475 1480 1484 1489 1494 1498 1502 1506 1510 1512 1515 1517 1519 1520 1522 1522 1522 1523 1523 1523 1523 1523 1523 1523 1523 1522 1522 1522 1522 1521 1520 1519 1518 1518 1517 1515 1514 1514 1513 1510 1507 1503 1500
1472 1478 1482 1487 1491 1495 1499 1503 1507 1509 1512 1515 1517 1518 1519 1520 1520 1521 1521 1522 1521 1522 1522 1521 1520 1519 1519 1519 1518 1518 1517 1516 1515 1514 1513 1511 1510 1509 1508 1506 1504 1498 1495
1469 1475 1480 1485 1488 1492 1497 1500 1504 1507 1510 1512 1514 1516 1517 1517 1518 1519 1520 1520 1520 1520 1519 1519 1518 1517 1516 1516 1515 1514 1513 1512 1510 1509 1507 1506 1505 1504 1502 1501 1499 1496 1489
1468 1473 1477 1481 1486 1490 1494 1498 1502 1505 1508 1509 1511 1513 1514 1514 1515 1516 1517 1517 1517 1517 1517 1516 1515 1515 1514 1513 1511 1510 1509 1507 1506 1504 1502 1500 1499 1497 1495 1493 1492 1490 1486
1466 1472 1476 1480 1484 1489 1492 1496 1499 1502 1505 1507 1509 1511 1512 1512 1513 1514 1514 1515 1515 1515 1515 1514 1513 1512 1511 1510 1509 1507 1505 1503 1501 1500 1497 1494 1493 1490 1488 1486 1484 1481 1480
1468 1471 1475 1479 1483 1488 1491 1494 1498 1501 1504 1506 1508 1509 1510 1510 1511 1512 1513 1513 1513 1513 1512 1512 1511 1511 1510 1508 1507 1505 1503 1500 1497 1495 1492 1489 1487 1484 1481 1479 1476 1474 1472
1468 1472 1475 1478 1483 1487 1490 1494 1497 1500 1503 1505 1507 1508 1508 1509 1510 1511 1512 1512 1512 1512 1511 1510 1510 1508 1507 1505 1503 1501 1498 1495 1493 1490 1487 1483 1481 1477 1474 1471 1468 1465 1463
1468 1472 1475 1479 1483 1486 1490 1493 1496 1499 1502 1503 1505 1505 1506 1507 1508 1510 1511 1511 1511 1510 1510 1509 1507 1506 1503 1501 1498 1495 1492 1489 1486 1483 1480 1476 1473 1469 1466 1464 1461 1458 1455
1468 1472 1475 1478 1482 1486 1489 1492 1495 1498 1500 1502 1503 1504 1505 1507 1509 1510 1510 1510 1509 1508 1507 1506 1504 1502 1499 1496 1492 1488 1485 1482 1478 1475 1471 1468 1464 1461 1458 1455 1452 1450 1447
1467 1471 1474 1478 1482 1486 1488 1491 1494 1496 1498 1500 1501 1503 1505 1507 1508 1508 1508 1508 1507 1505 1504 1502 1500 1497 1493 1490 1487 1482 1478 1474 1471 1467 1464 1461 1457 1454 1450 1448 1445 1443 1439
1465 1470 1473 1477 1480 1485 1488 1490 1493 1495 1497 1498 1501 1502 1504 1505 1506 1506 1506 1505 1504 1502 1500 1497 1494 1491 1488 1484 1480 1476 1471 1468 1464 1461 1457 1452 1450 1446 1443 1439 1436 1433 1432
1464 1469 1472 1477 1480 1484 1487 1489 1492 1494 1496 1498 1500 1502 1503 1503 1504 1503 1503 1501 1500 1497 1494 1491 1488 1484 1481 1478 1474 1470 1465 1461 1458 1454 1450 1446 1442 1439 1435 1431 1427 1424 1421
1462 1467 1472 1476 1479 1483 1486 1488 1490 1492 1495 1497 1499 1500 1501 1501 1501 1500 1499 1497 1495 1492 1488 1485 1481 1478 1475 1472 1468 1463 1458 1453 1450 1446 1443 1439 1435 1432 1428 1423 1418 1414 1410
1462 1466 1470 1474 1478 1481 1484 1486 1489 1492 1494 1495 1497 1498 1498 1498 1498 1497 1495 1493 1489 1485 1482 1479 1476 1472 1468 1465 1461 1458 1452 1445 1440 1436 1433 1431 1428 1424 1420 1417 1411 1405 1400
1461 1466 1471 1474 1477 1480 1483 1486 1488 1490 1493 1494 1495 1496 1496 1496 1494 1493 1490 1487 1484 1480 1476 1472 1469 1466 1463 1459 1455 1452 1446 1441 1433 1428 1423 1421 1419 1415 1412 1409 1404 1398 1394
1463 1468 1471 1473 1477 1480 1483 1485 1487 1490 1492 1493 1493 1493 1493 1492 1490 1487 1485 1482 1479 1475 1472 1467 1462 1459 1455 1451 1447 1443 1440 1435 1429 1422 1417 1413 1410 1406 1402 1399 1394 1390 1387
1465 1468 1472 1474 1477 1480 1482 1484 1487 1489 1490 1491 1491 1490 1489 1487 1486 1483 1481 1478 1475 1470 1465 1460 1454 1449 1446 1442 1439 1434 1431 1426 1421 1416 1410 1405 1401 1397 1392 1389 1385 1382 1378
1466 1469 1472 1474 1477 1480 1482 1484 1486 1488 1488 1488 1487 1486 1485 1483 1481 1479 1476 1473 1469 1464 1460 1455 1450 1443 1438 1434 1430 1425 1420 1417 1412 1407 1401 1396 1392 1389 1385 1380 1376 1374 1370
1467 1470 1472 1475 1477 1480 1482 1484 1485 1486 1485 1484 1483 1482 1480 1479 1476 1474 1471 1468 1466 1462 1456 1452 1446 1438 1430 1428 1425 1420 1415 1410 1405 1399 1393 1388 1383 1379 1375 1371 1368 1365 1361
1468 1470 1473 1476 1478 1480 1482 1483 1483 1483 1482 1481 1480 1478 1476 1473 1470 1466 1463 1462 1458 1454 1451 1447 1441 1433 1428 1421 1416 1412 1408 1403 1399 1392 1387 1381 1377 1372 1368 1363 1358 1355 1352